This demonstration page uses our WeatherBlox Daily Observations layout. Learn more.

Left ArrowRight Arrow

44.8408, -93.29828

Hourly Observations for November 27, 2019

Temp ( °F °C ) Dew Point ( °F °C ) Humidity (%) Winds ( mph kmh ) Pressure ( in mb ) Visibility ( mi km ) Precip ( " mm )
12:13 am 00:13 Mostly Cloudy with Mist and Fog 31 -0.6 29 -1.7 92 92 N 18 30 29.61 1003 0 0 0.03 0.76
12:44 am 00:44 Mostly Cloudy with Heavy Snow 30 -1.1 29 -1.7 96 96 N 20 31 29.59 1002 0 0 0.09 2.29
12:53 am 00:53 Mostly Cloudy with Snow 30 -1.1 29 -1.7 96 96 N 21 33 29.57 1001 1 1 0.10 2.54
1:34 am 01:34 Windy with Snow Likely 30 -1.1 28 -2.2 92 92 N 21 33 29.57 1001 1 2 0.02 0.51
1:53 am 01:53 Cloudy with Light Snow 30 -1.1 28 -2.2 92 92 N 18 30 29.54 1000 1 2 0.02 0.51
2:01 am 02:01 Windy with Snow Likely 30 -1.1 28 -2.2 92 92 N 21 33 29.58 1002 2 3 0.01 0.25
2:18 am 02:18 Cloudy with Light Snow 30 -1.1 28 -2.2 92 92 N 17 28 29.58 1002 1 2 0.01 0.25
2:31 am 02:31 Cloudy with Light Snow 30 -1.1 28 -2.2 92 92 N 18 30 29.58 1002 1 2 0.01 0.25
2:53 am 02:53 Windy with Snow Likely 30 -1.1 28 -2.2 92 92 N 22 35 29.54 1000 1 2 0.02 0.51
3:20 am 03:20 Windy with Snow Likely 31 -0.6 29 -1.7 92 92 N 23 37 29.58 1002 1 2 0.01 0.25
3:29 am 03:29 Windy with Snow Likely 31 -0.6 29 -1.7 92 92 N 21 33 29.59 1002 2 3 0.01 0.25
3:41 am 03:41 Windy with Snow Likely 31 -0.6 29 -1.7 92 92 N 20 31 29.57 1001 2 3 0.01 0.25
3:49 am 03:49 Windy with Snow Likely 32 0 28 -2 87 87 N 22 35 29.56 1001 2 3 0.02 0.51
3:53 am 03:53 Windy with Snow Likely 32 0 29 -1.7 88 88 N 23 37 29.54 1000 2 3 0.02 0.51
4:06 am 04:06 Windy with Snow Likely 32 0 29 -1.7 88 88 N 21 33 29.56 1001 3 4 0.00 0.00
4:19 am 04:19 Windy with Snow Likely 32 0 29 -1.7 88 88 N 25 41 29.56 1001 3 4 0.00 0.00
4:31 am 04:31 Windy with Snow Likely 31 -0.6 29 -1.7 92 92 N 25 41 29.58 1002 2 3 0.00 0.00
4:43 am 04:43 Windy with Snow Likely 31 -0.6 28 -2.2 89 89 N 24 39 29.58 1002 2 3 0.00 0.00
4:53 am 04:53 Windy with Snow Likely 31 -0.6 28 -2.2 89 89 N 22 35 29.56 1001 3 5 0.00 0.00
5:24 am 05:24 Windy with Snow Likely 30 -1.1 26 -3.3 85 85 N 33 54 29.61 1003 3 4 0.01 0.25
5:42 am 05:42 Windy with Snow Likely 30 -1.1 26 -3.3 85 85 N 23 37 29.62 1003 2 3 0.01 0.25
5:49 am 05:49 Windy with Snow Likely 30 -1 27 -3 86 86 N 24 39 29.63 1003 1 2 0.01 0.25
5:53 am 05:53 Windy with Snow Likely 30 -1.1 27 -2.8 88 88 N 24 39 29.60 1002 1 2 0.01 0.25
6:40 am 06:40 Windy with Snow Likely 29 -1.7 26 -3.3 89 89 N 24 39 29.68 1005 1 1 0.01 0.25
6:53 am 06:53 Mostly Cloudy with Light Snow 29 -1.7 26 -3.3 89 89 N 26 43 29.67 1005 1 2 0.01 0.25
7:04 am 07:04 Windy with Snow Likely 30 -1.1 26 -3.3 85 85 N 23 37 29.70 1006 2 2 0.00 0.00
7:15 am 07:15 Windy with Snow Likely 30 -1.1 26 -3.3 85 85 NNW 26 43 29.71 1006 2 3 0.00 0.00
7:24 am 07:24 Windy with Snow Likely 30 -1.1 26 -3.3 85 85 N 23 37 29.73 1007 2 3 0.00 0.00
7:40 am 07:40 Windy with Snow Likely 30 -1.1 25 -3.9 82 82 N 22 35 29.74 1007 4 6 0.00 0.00
7:53 am 07:53 Windy with Snow Likely 30 -1.1 25 -3.9 82 82 N 24 39 29.73 1007 5 8 0.00 0.00
8:20 am 08:20 Windy with Snow Likely 30 -1.1 25 -3.9 82 82 NNW 21 33 29.78 1008 4 6 0.00 0.00
8:53 am 08:53 Windy with Snow Likely 30 -1.1 25 -3.9 82 82 NNW 23 37 29.79 1009 9 14 0.00 0.00
9:30 am 09:30 Cloudy 31 -0.6 24 -4.4 76 76 NNW 17 28 29.86 1011 10 16 0.00 0.00
9:53 am 09:53 Cloudy 31 -0.6 24 -4.4 76 76 NNW 21 33 29.86 1011 10 16 0.00 0.00
10:53 am 10:53 Cloudy 31 -0.6 24 -4.4 76 76 NNW 17 28 29.91 1013 10 16 0.00 0.00
11:53 am 11:53 Cloudy 32 0 24 -4.4 73 73 NNW 21 33 29.96 1015 10 16 0.00 0.00
12:53 pm 12:53 Cloudy 32 0 23 -5 69 69 NW 21 33 30.01 1016 10 16 0.00 0.00
1:53 pm 13:53 Cloudy 32 0 22 -5.6 66 66 NNW 24 39 30.06 1018 10 16 0.00 0.00
2:53 pm 14:53 Cloudy 32 0 22 -5.6 66 66 NNW 18 30 30.11 1020 10 16 0.00 0.00
3:53 pm 15:53 Cloudy 31 -0.6 22 -5.6 69 69 NW 20 31 30.17 1022 10 16 0.00 0.00
4:53 pm 16:53 Cloudy 30 -1.1 20 -6.7 66 66 NW 15 24 30.22 1023 10 16 0.00 0.00
5:53 pm 17:53 Cloudy 30 -1.1 20 -6.7 66 66 NNW 16 26 30.27 1025 10 16 0.00 0.00
6:53 pm 18:53 Cloudy 29 -1.7 20 -6.7 69 69 N 16 26 30.31 1026 10 16 0.00 0.00
7:53 pm 19:53 Cloudy 28 -2.2 19 -7.2 69 69 N 17 28 30.34 1028 10 16 0.00 0.00
8:53 pm 20:53 Cloudy 28 -2.2 18 -7.8 66 66 N 14 22 30.37 1028 10 16 0.00 0.00
9:53 pm 21:53 Cloudy 27 -2.8 17 -8.3 66 66 N 12 19 30.42 1030 10 16 0.00 0.00
10:27 pm 22:27 Cloudy 27 -2.8 16 -8.9 63 63 NNE 13 20 30.48 1032 10 16 0.00 0.00
10:53 pm 22:53 Cloudy 27 -2.8 17 -8.3 66 66 N 10 17 30.47 1032 10 16 0.00 0.00
11:01 pm 23:01 Cloudy 27 -2.8 17 -8.3 66 66 N 10 17 30.50 1033 10 16 0.00 0.00
11:53 pm 23:53 Cloudy 26 -3.3 17 -8.3 69 69 N 8 13 30.50 1033 10 16 0.00 0.00

Powered by AerisWeather